Flag for Austria Weather past 2 weeks in Rust, Burgenland, Austria

Now
56 °F

Cool.


Feels Like: 56 °F
Forecast: 52 / 76 °F
Wind: 5 mph from East

Location: Eisenstadt

Current Time: May 3, 2015 at 5:11:47 PM

Latest Report: May 3, 2015 at 4:00 PM


Visibility: N/A

Pressure: 29.88 "Hg

Humidity: 82%

Dew point: 51 °F

Location of RustLocation

Historic Weather in Rust — Graph

°F

Rust temperature yesterday

Maximum temperature yesterday: 60 °F (at 2:00 PM)
Minimum temperature yesterday: 50 °F (at 11:00 PM)
Average temperature yesterday: 55 °F

Past Weeks' High & Low Weather Summary

 TemperatureHumidityPressure
High77 °F (Apr 27, 2:00 PM)96% (May 2, 4:00 AM)30.26 "Hg (May 2, 4:00 AM)
Low34 °F (Apr 19, 2:00 AM)22% (Apr 21, 6:00 PM)29.55 "Hg (Apr 27, 7:00 PM)
Average56 °F60%29.97 "Hg
* Reported Apr 18 3:00 PM — May 3 3:00 PM, Rust, Weather by CustomWeather, © 2015

Note: Actual official high and low records may vary slightly from our data, if they occured in-between our weather recording intervals... More about our weather records

Advertising

Rust weather history for previous 24 hours

 ConditionsComfort  
Time TempWeatherWind HumidityBarometerVisibility
3:00 PM
Sun, May 3
56 °FCool.5 mph82%29.89 "HgN/A
2:00 PM56 °FOvercast.6 mph80%29.89 "Hg7 mi
1:00 PM55 °FSprinkles. Cloudy.7 mph82%29.89 "HgN/A
12:00 PM55 °FCool.7 mph89%29.90 "HgN/A
11:00 AM54 °FDrizzle. Overcast.7 mph91%29.91 "Hg6 mi
10:00 AM53 °FFog.5 mph93%29.91 "HgN/A
9:00 AM52 °FFog.2 mph94%29.93 "HgN/A
8:00 AM52 °FDrizzle. Overcast.2 mph91%29.92 "Hg6 mi
7:00 AM51 °FDrizzle. Overcast.2 mph90%29.92 "Hg6 mi
6:00 AM52 °FOvercast.3 mph85%29.91 "Hg6 mi
4:00 AM49 °FOvercast.3 mph90%29.93 "Hg6 mi
3:00 AM49 °FCool.2 mph90%29.94 "HgN/A
2:00 AM47 °FPassing clouds.3 mph92%29.94 "Hg6 mi
1:00 AM46 °FCool.2 mph92%29.95 "HgN/A
12:00 AM49 °FCool.2 mph86%29.95 "HgN/A
11:00 PM
Sat, May 2
50 °FPassing clouds.2 mph86%29.95 "Hg6 mi
10:00 PM51 °FCool.2 mph86%29.94 "HgN/A
9:00 PM53 °FCool.2 mph76%29.91 "HgN/A
8:00 PM55 °FPartly sunny.5 mph73%29.91 "Hg9 mi
7:00 PM57 °FPartly sunny.3 mph68%29.90 "Hg9 mi
6:00 PM58 °FCool.3 mph66%29.89 "HgN/A
5:00 PM59 °FOvercast.5 mph64%29.88 "Hg12 mi
Weather by CustomWeather, © 2015

See weather overviewHow to use our weather pages